Home   Weather   Oftringen   Past weeks

Flag for Switzerland Past Weather in Oftringen, Aargau, Switzerland — Yesterday and Last 2 Weeks

Now
25 °F

Chilly.


Feels Like: 13 °F
Forecast: 19 / 24 °F
Wind: 15 mph from Northeast

Location: Wynau

Current Time: Jan 18, 2017 at 1:12:22 pm

Latest Report: Jan 18, 2017 at 12:00 pm


Visibility: N/A

Pressure: 30.48 "Hg

Humidity: 78%

Dew Point: 19 °F

Location of OftringenLocation

Past Weather in Oftringen — Graph

°F

Oftringen Temperature Yesterday

Maximum temperature yesterday: 26 °F (at 7:00 am)
Minimum temperature yesterday: 22 °F (at 1:00 am)
Average temperature yesterday: 25 °F

High & Low Weather Summary for the Past Weeks

 TemperatureHumidityPressure
High42 °F (Jan 13, 1:00 am)100% (Jan 11, 8:00 am)30.73 "Hg (Jan 11, 8:00 am)
Low11 °F (Jan 7, 3:00 am)61% (Jan 5, 7:00 pm)29.57 "Hg (Jan 13, 1:00 am)
Average28 °F86%30.26 "Hg
* Reported Jan 3 11:00 am — Jan 18 11:00 am, Oftringen, Weather by CustomWeather, © 2017

Note: Actual official high and low records may vary slightly from our data, if they occured in-between our weather recording intervals... More about our weather records

Advertising

Oftringen Weather History for the Previous 24 Hours

Scroll right to see more
 ConditionsComfort  
Time TempWeatherWind HumidityBarometerVisibility
11:00 am
Wed, Jan 18
24 °FCold.14 mph82%30.48 "HgN/A
10:00 am24 °FCold.16 mph79%30.47 "HgN/A
9:00 am24 °FCold.14 mph76%30.46 "HgN/A
8:00 am24 °FCold.14 mph77%30.45 "HgN/A
7:00 am24 °FCold.14 mph78%30.44 "HgN/A
6:00 am24 °FCold.16 mph77%30.42 "HgN/A
5:00 am24 °FCold.14 mph77%30.43 "HgN/A
4:00 am24 °FCold.17 mph75%30.43 "HgN/A
3:00 am24 °FCold.18 mph75%30.44 "HgN/A
2:00 am25 °FCold.15 mph75%30.43 "HgN/A
1:00 am25 °FChilly.15 mph73%30.42 "HgN/A
12:00 am25 °FChilly.22 mph74%30.42 "HgN/A
11:00 pm
Tue, Jan 17
25 °FChilly.20 mph76%30.42 "HgN/A
10:00 pm25 °FChilly.20 mph74%30.42 "HgN/A
9:00 pm25 °FChilly.20 mph75%30.42 "HgN/A
8:00 pm25 °FChilly.21 mph76%30.41 "HgN/A
7:00 pm25 °FChilly.21 mph77%30.41 "HgN/A
6:00 pm26 °FChilly.25 mph74%30.39 "HgN/A
5:00 pm26 °FChilly.16 mph74%30.39 "HgN/A
4:00 pm26 °FChilly.17 mph74%30.38 "HgN/A
3:00 pm26 °FChilly.28 mph74%30.37 "HgN/A
2:00 pm26 °FChilly.21 mph73%30.37 "HgN/A
1:00 pm26 °FChilly.22 mph73%30.39 "HgN/A
Weather by CustomWeather, © 2017

See weather overviewHow to use our weather pages